Starlink 4331

operational
NORAD ID: 53046 Int'l Des: 2022-077 Owner: SPXS Country: US Constellation: starlink
LEOCIRCULARRETROGRADESSO

关于 Starlink 4331

正在加载描述...

实时位置

正在加载3D地球...

即将过境

高度历史

Altitude vs Time

uPlot chart will show altitude changes over time

两行轨道根数

1 53046U 22077D 25351.74708554 -.00000685 00000-0 -43285-4 0 9999
2 53046 97.6024 170.5411 0001732 82.0957 278.0466 15.05645654188664
Epoch: Dec 17, 2025 • Age: 13 hours

当前状态

高度 560.6 km
速度 7.58 km/s
星下点 -28.42°S, 10.41°W
发射日期 Jul 11, 2022
运行时间 3.4 years
类型 internet

技术详情

分类 Payload
质量 297.00 kg
干质量 275.00 kg
总质量 297.00 kg
长度 0.20 m
直径 2.80 m
跨度 9.00 m
形状 Box + pan
制造商 SPXS
平台类型 Starlink
阶段状态 In Orbit
所有者/国家 SPXS/US

大型星座

Loading constellations...